Location: Unnamed
(23.5608°S, 46.6833°W)
Time: 07:59:07
(UTC-03:00)

Tiros 4 - Pass Details

Date: 10 December 2023
Orbit: 683 x 793 km, 48.3° (Epoch: 21 February)

Event Time Altitude Azimuth Distance (km) Brightness Sun altitude
Exits shadow 00:10:58 14° 177° (S) 2,084 9.8 -43.5°
Drops below altitude 10° 00:12:11 10° 166° (SSE) 2,374 10.1 -43.5°
Sets 00:15:17 0° 150° (SSE) 3,305 11.0 -43.4°
